Weather History for KBGF - February, 2014

Change the Weather History Date:

Thursday, February 27, 2014

  Actual Average (KTHA) Record (KTHA)
Temperature  
Mean Temperature 27 °F -  
Max Temperature 42 °F 56 °F 44 °F (2013)
Min Temperature 12 °F 33 °F 10 °F (2014)
Degree Days  
Heating Degree Days 38    
Moisture  
Dew Point 11 °F    
Average Humidity 55    
Maximum Humidity 92    
Minimum Humidity 29    
Precipitation  
Precipitation 0.00 in - - ()
Sea Level Pressure  
Sea Level Pressure 30.02 in    
Wind  
Wind Speed 2 mph (NNW)    
Max Wind Speed 9 mph    
Max Gust Speed -    
Visibility 10 miles    
Events      
Averages and records for this station are not official NWS values.
T = Trace of Precipitation, MM = Missing Value Source: NWS Daily Summary

Daily Weather History Graph

Daily Weather History Graph

Search for Another Location

Airport or City:

Trip Planner

Search our weather history database for the weather conditions in past years. The results will help you decide how hot, cold, wet, or windy it might be!

Date:

Astronomy

Feb. 27, 2014 Rise Set
Actual Time 7:16 AM EST 6:38 PM EST
Civil Twilight 6:50 AM EST 7:03 PM EST
Nautical Twilight 6:21 AM EST 7:33 PM EST
Astronomical Twilight 5:52 AM EST 8:02 PM EST
Moon 5:45 AM EST (2/27) 5:04 PM EST (2/27)
Length of Visible Light 12h 12m
Length of Day
11h 21m
Waning Crescent, 4% of the Moon is Illuminated
Feb 27
Waning Crescent
Mar 1
New
Mar 8
First Quarter
Mar 16
Full
Mar 23
Last Quarter

Hourly Weather History & Observations

Time (EST) Temp. Windchill Dew Point Humidity Pressure Visibility Wind Dir Wind Speed Gust Speed Precip Events Conditions
12:15 AM 21.2 °F - 6.8 °F 54% 30.00 in 10.0 mi Calm Calm - N/A   Clear
12:35 AM 21.2 °F - 6.8 °F 54% 30.00 in 10.0 mi Calm Calm - N/A   Clear
12:55 AM 19.4 °F 14.3 °F 6.8 °F 58% 30.01 in 10.0 mi NW 3.5 mph - N/A   Clear
1:55 AM 19.4 °F - 8.6 °F 63% 30.02 in 10.0 mi Calm Calm - N/A   Clear
2:15 AM 15.8 °F - 8.6 °F 73% 30.01 in 10.0 mi Calm Calm - N/A   Clear
2:35 AM 15.8 °F - 8.6 °F 73% 30.01 in 10.0 mi Calm Calm - N/A   Clear
2:55 AM 14.0 °F - 10.4 °F 86% 30.00 in 10.0 mi Calm Calm - N/A   Clear
3:15 AM 15.8 °F - 10.4 °F 79% 30.00 in 10.0 mi Calm Calm - N/A   Clear
3:35 AM 14.0 °F - 10.4 °F 86% 30.00 in 10.0 mi Calm Calm - N/A   Clear
3:55 AM 12.2 °F - 10.4 °F 92% 30.01 in 10.0 mi Calm Calm - N/A   Clear
4:15 AM 14.0 °F - 10.4 °F 86% 30.00 in 10.0 mi Calm Calm - N/A   Clear
4:35 AM 12.2 °F - 10.4 °F 92% 30.01 in 10.0 mi Calm Calm - N/A   Clear
4:55 AM 12.2 °F - 10.4 °F 92% 30.00 in 10.0 mi Calm Calm - N/A   Clear
5:15 AM 12.2 °F - 8.6 °F 85% 30.01 in 10.0 mi Calm Calm - N/A   Clear
5:35 AM 12.2 °F - 10.4 °F 92% 30.01 in 10.0 mi Calm Calm - N/A   Clear
5:55 AM 12.2 °F - 10.4 °F 92% 30.01 in 10.0 mi Calm Calm - N/A   Clear
6:15 AM 12.2 °F - 8.6 °F 85% 30.01 in 10.0 mi Calm Calm - N/A   Clear
6:35 AM 12.2 °F - 8.6 °F 85% 30.02 in 10.0 mi Calm Calm - N/A   Clear
6:55 AM 12.2 °F - 8.6 °F 85% 30.02 in 10.0 mi Calm Calm - N/A   Clear
7:15 AM 12.2 °F - 8.6 °F 85% 30.02 in 10.0 mi Calm Calm - N/A   Clear
7:35 AM 12.2 °F - 8.6 °F 85% 30.03 in 10.0 mi Calm Calm - N/A   Clear
7:55 AM 14.0 °F - 10.4 °F 86% 30.03 in 10.0 mi Calm Calm - N/A   Clear
8:15 AM 15.8 °F - 12.2 °F 86% 30.04 in 10.0 mi Calm Calm - N/A   Clear
8:35 AM 21.2 °F - 12.2 °F 68% 30.04 in 10.0 mi Calm Calm - N/A   Clear
8:55 AM 23.0 °F 17.0 °F 10.4 °F 59% 30.05 in 10.0 mi West 4.6 mph - N/A   Clear
9:15 AM 24.8 °F 19.1 °F 10.4 °F 54% 30.06 in 10.0 mi Variable 4.6 mph - N/A   Clear
9:35 AM 26.6 °F 19.1 °F 10.4 °F 51% 30.06 in 10.0 mi WNW 6.9 mph - N/A   Clear
9:55 AM 26.6 °F 18.2 °F 10.4 °F 51% 30.06 in 10.0 mi WNW 8.1 mph - N/A   Clear
10:15 AM 28.4 °F 23.3 °F 10.4 °F 47% 30.05 in 10.0 mi Variable 4.6 mph - N/A   Clear
10:35 AM 28.4 °F 20.4 °F 10.4 °F 47% 30.05 in 10.0 mi North 8.1 mph - N/A   Clear
10:55 AM 30.2 °F 22.6 °F 10.4 °F 44% 30.05 in 10.0 mi North 8.1 mph - N/A   Clear
11:15 AM 30.2 °F 22.6 °F 12.2 °F 47% 30.05 in 10.0 mi NNW 8.1 mph - N/A   Clear
11:35 AM 33.8 °F 29.6 °F 12.2 °F 41% 30.05 in 10.0 mi NNW 4.6 mph - N/A   Clear
11:55 AM 33.8 °F 28.6 °F 12.2 °F 41% 30.05 in 10.0 mi Variable 5.8 mph - N/A   Clear
12:15 PM 35.6 °F 29.9 °F 12.2 °F 38% 30.04 in 10.0 mi WNW 6.9 mph - N/A   Clear
12:35 PM 35.6 °F 29.9 °F 12.2 °F 38% 30.03 in 10.0 mi Variable 6.9 mph - N/A   Clear
12:55 PM 35.6 °F 29.2 °F 12.2 °F 38% 30.03 in 10.0 mi NNW 8.1 mph - N/A   Clear
1:15 PM 37.4 °F 32.1 °F 12.2 °F 36% 30.02 in 8.0 mi North 6.9 mph - N/A   Clear
1:35 PM 37.4 °F 32.1 °F 12.2 °F 36% 30.01 in 10.0 mi North 6.9 mph - N/A   Clear
1:55 PM 39.2 °F 37.0 °F 12.2 °F 33% 30.01 in 10.0 mi Variable 3.5 mph - N/A   Clear
2:15 PM 39.2 °F 37.0 °F 12.2 °F 33% 30.00 in 10.0 mi Variable 3.5 mph - N/A   Clear
2:35 PM 41.0 °F 35.8 °F 12.2 °F 31% 29.99 in 10.0 mi NNW 8.1 mph - N/A   Clear
2:55 PM 41.0 °F 36.4 °F 12.2 °F 31% 29.99 in 10.0 mi WNW 6.9 mph - N/A   Clear
3:15 PM 42.8 °F 39.3 °F 12.2 °F 29% 29.99 in 10.0 mi Variable 5.8 mph - N/A   Clear
3:35 PM 42.8 °F 38.0 °F 12.2 °F 29% 29.99 in 10.0 mi WNW 8.1 mph - N/A   Clear
3:55 PM 42.8 °F 38.6 °F 12.2 °F 29% 29.99 in 10.0 mi Variable 6.9 mph - N/A   Clear
4:15 PM 42.8 °F 37.5 °F 12.2 °F 29% 29.99 in 10.0 mi WNW 9.2 mph - N/A   Clear
4:35 PM 42.8 °F 38.6 °F 12.2 °F 29% 29.98 in 10.0 mi NW 6.9 mph - N/A   Clear
4:55 PM 42.8 °F 38.0 °F 12.2 °F 29% 29.99 in 10.0 mi North 8.1 mph - N/A   Clear
5:15 PM 42.8 °F 38.6 °F 12.2 °F 29% 29.99 in 10.0 mi WNW 6.9 mph - N/A   Clear
5:35 PM 42.8 °F 38.6 °F 12.2 °F 29% 29.99 in 10.0 mi NNW 6.9 mph - N/A   Clear
5:55 PM 41.0 °F 37.1 °F 12.2 °F 31% 30.00 in 10.0 mi NNW 5.8 mph - N/A   Clear
6:15 PM 39.2 °F 34.2 °F 12.2 °F 33% 29.99 in 10.0 mi NNW 6.9 mph - N/A   Clear
6:35 PM 39.2 °F 35.9 °F 12.2 °F 33% 30.00 in 10.0 mi NNW 4.6 mph - N/A   Clear
6:55 PM 37.4 °F 34.9 °F 12.2 °F 36% 30.00 in 10.0 mi NNW 3.5 mph - N/A   Clear
7:15 PM 37.4 °F - 12.2 °F 36% 30.00 in 10.0 mi Calm Calm - N/A   Clear
7:35 PM 30.2 °F - 15.8 °F 55% 29.99 in 10.0 mi Calm Calm - N/A   Clear
7:55 PM 32.0 °F - 14.0 °F 48% 30.00 in 10.0 mi Calm Calm - N/A   Clear
8:15 PM 30.2 °F - 14.0 °F 51% 30.01 in 10.0 mi Calm Calm - N/A   Clear
8:35 PM 30.2 °F - 12.2 °F 47% 30.01 in 10.0 mi Calm Calm - N/A   Clear
8:55 PM 28.4 °F 24.6 °F 14.0 °F 55% 30.01 in 10.0 mi North 3.5 mph - N/A   Clear
9:15 PM 26.6 °F - 15.8 °F 64% 30.03 in 10.0 mi Calm Calm - N/A   Clear
9:35 PM 28.4 °F - 17.6 °F 64% 30.03 in 10.0 mi Calm Calm - N/A   Clear
9:55 PM 28.4 °F 24.6 °F 15.8 °F 59% 30.04 in 10.0 mi NNW 3.5 mph - N/A   Clear
10:15 PM 30.2 °F 25.4 °F 12.2 °F 47% 30.05 in 10.0 mi NNW 4.6 mph - N/A   Clear
10:35 PM 30.2 °F 24.3 °F 12.2 °F 47% 30.05 in 10.0 mi North 5.8 mph - N/A   Clear
10:55 PM 28.4 °F 24.6 °F 12.2 °F 51% 30.05 in 10.0 mi NNE 3.5 mph - N/A   Clear
11:15 PM 26.6 °F - 12.2 °F 55% 30.05 in 10.0 mi Calm Calm - N/A   Clear
11:35 PM 26.6 °F - 12.2 °F 55% 30.05 in 10.0 mi Calm Calm - N/A   Clear
11:55 PM 26.6 °F 22.6 °F 12.2 °F 55% 30.06 in 10.0 mi North 3.5 mph - N/A   Clear